Location: Eaton
(41.3139°N, 82.0207°W)
Time: 17:03:26
(UTC+00:00)

Cosmos 2058 Rocket - Pass Details

Date: 17 June 2021
Orbit: 609 x 640 km, 82.5° (Epoch: 02 August)

Event Time Altitude Azimuth Distance (km) Brightness Sun altitude
Rises 04:10:45 0° 2° (N) 2,929 7.7 -22.8°
Reaches altitude 10° 04:13:14 10° 13° (NNE) 2,011 6.5 -23.0°
Maximum altitude 04:17:10 30° 75° (ENE) 1,123 4.3 -23.2°
Enters shadow 04:17:22 30° 80° (E) 1,126 4.3 -23.2°
